Ingeniero Juan Guillermo Villasana Airport

Jump to: basic info | weather | frequencies | runways | comments

Related pages: nearby airports | nearby navaids | notams | map

Basic information (top)

Codes: MMPC
Location: lon 20.077400, lat -98.782501, elev 7,600 ft / 2,316 m msl
Status: small_airport

Weather (top)

Current conditions for Licenciado Benito Juarez International Airport 42nm (77km) SSW (rec'd 2014/10/25 06:52Z):

MMMX 250652Z 02004KT 12SM FEW020 BKN080 14/09 A3043 NOSIG RMK 8/530

Airport forecast for Licenciado Benito Juarez International Airport 42nm (77km) SSW (rec'd 2014/10/23 00:27Z):

TAF MMMX 232323Z 2400/2506 02005KT P6SM SCT020 BKN080 TX23/2422Z TN13/2412Z 
     FM240600 07005KT P6SM SCT080 
     FM241000 07005KT 4SM HZ SCT020 BKN080 
      TEMPO 2412/2415 3SM HZ BKN020 BKN080

Frequencies (top)

Verify before use: may be inaccurate or out of date.

AFIS: 122.9 MHz (AFIS)

Runways (top)

03/21: 6,825 x 85 ft (2,080 x 26 m) — paved — not lighted — threshold 03 displaced 656 ft (200 m) — threshold 21 displaced 865 ft (264 m)

Latest comments (top)

No comments yet for Ingeniero Juan Guillermo Villasana Airport

More... (top)

See also NOTAMs and nearby airports and navaids, or visit the Ingeniero Juan Guillermo Villasana Airport page at the main OurAirports website..